Flag Weather past 2 weeks in Bernburg (Saale), Saxony-Anhalt, Germany

Now
52 °F

Low clouds.


Feels Like: 52 °F
Forecast: 46 / 59 °F
Wind: 1 mph from East

Location: Magdeburg

Current Time: Oct 30, 2014 at 4:34:05 PM

Latest Report: Oct 30, 2014 at 3:00 PM


Visibility: 5 mi

Pressure: 30.28 "Hg

Humidity: 85%

Dew point: 47 °F

Location of Bernburg (Saale)Location

Historic Weather in Bernburg (Saale) — Graph

°F

Bernburg (Saale) temperature yesterday

Maximum temperature yesterday: 51 °F (at 2:00 PM)
Minimum temperature yesterday: 32 °F (at 7:00 AM)
Average temperature yesterday: 43 °F

Past Weeks' High & Low Weather Summary

 TemperatureHumidityPressure
High74 °F (Oct 19, 3:00 PM)100% (Oct 28, 9:00 AM)30.33 "Hg (Oct 28, 9:00 AM)
Low32 °F (Oct 29, 7:00 AM)59% (Oct 19, 2:00 PM)29.47 "Hg (Oct 21, 7:00 PM)
Average52 °F87%30.03 "Hg
* Reported Oct 15 4:00 PM — Oct 30 3:00 PM, Bernburg (Saale), Weather by CustomWeather, © 2014

Note: Actual official high and low records may vary slightly from our data, if they occured in-between our weather recording intervals... More about our weather records

Advertising

Bernburg (Saale) weather history for previous 24 hours

 ConditionsComfort  
Time TempWeatherWind HumidityBarometerVisibility
3:00 PM
Oct 30
52 °FLow clouds.1 mph85%30.28 "Hg5 mi
2:00 PM51 °FOvercast.1 mph85%30.28 "Hg7 mi
1:00 PM51 °FLow clouds.1 mph88%30.27 "Hg6 mi
12:00 PM50 °FLow clouds.1 mph89%30.27 "Hg7 mi
11:00 AM50 °FFog.1 mph90%30.27 "Hg4 mi
9:00 AM48 °FFog.1 mph96%30.25 "Hg3 mi
8:00 AM48 °FLow clouds.1 mph97%30.24 "Hg1 mi
7:00 AM48 °FDrizzle. Low clouds.1 mph97%30.22 "Hg1 mi
6:00 AM48 °FFog.1 mph97%30.20 "Hg1 mi
5:00 AM47 °FLow clouds.1 mph97%30.19 "Hg1 mi
3:00 AM47 °FFog.1 mph96%30.18 "Hg1 mi
2:00 AM47 °FLow clouds.1 mph96%30.16 "Hg1 mi
1:00 AM47 °FFog.1 mph95%30.16 "Hg1 mi
12:00 AM47 °FFog.1 mph89%30.15 "Hg2 mi
11:00 PM
Oct 29
47 °FOvercast.1 mph90%30.15 "Hg3 mi
9:00 PM47 °FOvercast.1 mph89%30.13 "Hg3 mi
8:00 PM47 °FFog.1 mph86%30.11 "Hg4 mi
7:00 PM47 °FOvercast.1 mph86%30.10 "Hg5 mi
6:00 PM47 °FOvercast.1 mph86%30.09 "Hg5 mi
5:00 PM45 °FPassing clouds.1 mph87%30.08 "Hg6 mi
4:00 PM51 °FPassing clouds.1 mph68%30.06 "Hg5 mi
Weather by CustomWeather, © 2014

See weather overviewHow to use our weather pages